Location: Ab? ar R?sh Ba?r?
(24.1861°N, 32.8847°E)
Time: 10:41:02
(UTC+00:00)

NORSAT 2 - Visible Passes

Search period start: 17 August 2022 00:00
Search period end: 27 August 2022 00:00
Orbit: 578 x 598 km, 97.4° (Epoch: 16 August)

Date Brightness Start Highest point End Pass type
(mag) Time Alt. Az. Time Alt. Az. Time Alt. Az.
17 Aug ? 17:07:39 10° NE 17:11:08 26° E 17:14:35 10° SSE visible
17 Aug ? 18:44:08 10° NW 18:46:21 14° WNW 18:48:34 10° WSW visible
18 Aug ? 17:14:57 10° NNE 17:18:41 34° E 17:22:24 10° SSE visible
18 Aug ? 18:52:32 10° NW 18:53:49 11° WNW 18:55:06 10° W visible
19 Aug ? 17:22:19 10° NNE 17:26:14 43° E 17:30:03 10° S visible
20 Aug ? 17:29:44 10° NNE 17:33:47 56° E 17:37:30 12° S visible
21 Aug ? 17:37:12 10° NNE 17:41:19 74° ESE 17:44:58 13° S visible
22 Aug ? 17:44:43 10° N 17:48:50 86° WNW 17:52:24 13° SSW visible
23 Aug ? 17:52:16 10° N 17:56:21 66° WNW 17:59:50 14° SSW visible
24 Aug ? 17:59:52 10° N 18:03:51 51° WNW 18:07:15 14° SSW visible
25 Aug ? 18:07:30 10° N 18:11:20 39° WNW 18:14:39 13° SW visible
26 Aug ? 16:41:47 10° ENE 16:43:21 12° E 16:44:54 10° ESE visible
26 Aug ? 18:15:12 10° NNW 18:18:49 31° WNW 18:22:02 12° SW visible
